Location: *
(42.0175°N, 9.4056°E)
Time: 06:29:19
(UTC+00:00)

ADEOS Rocket - Pass Details

Date: 25 August 2019
Orbit: 859 x 1307 km, 98.7° (Epoch: 16 September)

Event Time Altitude Azimuth Distance (km) Brightness Sun altitude
Rises 20:31:17 0° 6° (N) 3,638 6.5 -24.1°
Reaches altitude 10° 20:33:45 10° 359° (N) 2,743 5.9 -24.4°
Maximum altitude 20:39:26 40° 292° (WNW) 1,502 4.4 -25.2°
Drops below altitude 10° 20:45:41 10° 225° (SW) 3,013 5.5 -26.0°
Sets 20:48:32 0° 219° (SW) 4,035 6.2 -26.4°
